Regional Weather Roundup
Issued by NWS Northern Indiana

Home | Current Version | Previous Version | Graphics & Text | Print | Product List | Glossary On
Versions: 1 2 3 4 5 6 7 8 9 10 11 12 13 14 15 16 17 18 19 20 21 22 23 24 25 26 27 28 29 30 31 32 33 34 35 36 37 38 39 40 41 42 43 44 45 46 47 48 49 50
000
ASUS43 KIWX 201400
RWRIWX

KIWX WEATHER ROUNDUP
NATIONAL WEATHER SERVICE NORTHERN INDIANA
900 AM EST MON NOV 20 2017

NOTE: "FAIR" INDICATES FEW OR NO CLOUDS BELOW 12,000 FEET WITH NO
SIGNIFICANT WEATHER AND/OR OBSTRUCTIONS TO VISIBILITY.

* THESE STATIONS ARE NOT UNDER NWS QUALITY CONTROL. THEY ALSO MAY NOT
  REPORT WEATHER SUCH AS PRECIPITATION OR FOG.

INZ001>027-201500-
NORTHERN INDIANA

CITY           SKY/WX    TMP DP  RH WIND       PRES   REMARKS
GARY*          MOSUNNY   37  25  60 SW14G26   29.97F
LAPORTE*       SUNNY     32  25  75 S12       30.01S WCI  23
KNOX*          SUNNY     32  27  80 S15G25    30.03S WCI  22
SOUTH BEND     SUNNY     32  24  72 S13       30.01S WCI  22
ELKHART*       SUNNY     32  23  69 SW10      30.02S WCI  24
GOSHEN         SUNNY     34  21  59 S18G25    30.03F WCI  23
WARSAW*        SUNNY     32  23  69 S7        30.06R WCI  26
AUBURN*        SUNNY     32  23  69 S8        30.08S WCI  25
FORT WAYNE     MOSUNNY   33  24  69 SW13      30.10S WCI  24
PERU/GRISSOM   CLOUDY    33  24  67 SW14      30.08S WCI  24

$$
INZ028>050-201500-
CENTRAL INDIANA

CITY           SKY/WX    TMP DP  RH WIND       PRES   REMARKS
LAFAYETTE      CLOUDY    33  23  66 SW8       30.11S WCI  26
KOKOMO*        CLOUDY    34  23  64 S14       30.11S WCI  25
MUNCIE*        CLOUDY    33  22  63 SW9       30.14S WCI  25
INDIANAPOLIS   CLOUDY    30  22  72 S9        30.16S WCI  22

$$
MIZ043>046-050>051-056>058-064>065-071>073-077>080-201500-
SOUTHWEST LOWER MICHIGAN

CITY           SKY/WX    TMP DP  RH WIND       PRES   REMARKS
BATTLE CREEK   SUNNY     32  23  69 S16       29.98F WCI  21
BENTON HARBOR  SUNNY     34  23  64 S12       29.97F WCI  25
COLDWATER*     SUNNY     33  23  67 SW12G17   30.01F WCI  24
HILLSDALE*     SUNNY     32  23  69 S9G17     30.01F WCI  24
HOLLAND        SUNNY     33  26  75 S14       29.93F WCI  23
GRAND RAPIDS   MOSUNNY   32  26  78 S12       29.93F WCI  23
KALAMAZOO      SUNNY     32  22  66 S16       29.98F WCI  21
STURGIS*       SUNNY     32  25  74 S12       30.00F WCI  23
THREE RIVERS*  FAIR      33  25  72 S12       30.01F WCI  24

$$
OHZ001>008-015>018-024>025-201500-
NORTHWEST OHIO

CITY           SKY/WX    TMP DP  RH WIND       PRES   REMARKS
DEFIANCE       SUNNY     31  23  72 S13       30.10F WCI  21
FINDLAY        SUNNY     32  23  69 SW14      30.12R WCI  22
TOLEDO EXPRESS SUNNY     33  24  69 SW12      30.09R WCI  24
TOLEDO METCALF SUNNY     32  24  72 SW14      30.11R WCI  22
LIMA           SUNNY     29  24  82 S9        30.14R WCI  20

$$
AND FOR LAKE MICHIGAN COASTAL AND OPEN LAKE BUOY OBSERVATIONS

STATION/POSITION TEMP    WIND        PRES    VSBY  WAVE
                 AIR SEA DIR/SP/G                  HT/PER
                 (F)     (DEG/KT/KT) (MB)    (MI)  (FT/S)
CALUMET HARBOR    36     200/ 17/ 23 1013.4F
MICHIGAN CITY     35     180/ 19/ 24   N/A
BURNS HARBOR      36     190/ 19/ 25 1015.2F
SAINT JOSEPH      31     160/  7/ 11 1015.2
SOUTH LAKE BUOY   42 49  260/ 21/ 27 1013.2          6/ 6

$$
&&




USA.gov is the U.S. government's official web portal to all federal, state and local government web resources and services.